BMCB-15 Weather Reports


time (UTC)temp
C
wind
direction
speed
KPH
gust
KPH
rain 1hr
cm
rain 24hr
cm
rain mn
cm
humidity
%
barometer
mb
20260505210046 9 0 0.0 0.0 0.15 0.58 0.58 10 1011.1
20260505205047 9 0 0.0 0.0 0.18 0.56 0.56 10 1011.1
20260505204048 9 0 0.0 0.0 0.15 0.51 0.51 10 1011.1
20260505203046 9 0 0.0 0.0 0.15 0.51 0.51 10 1011.1
20260505202049 9 0 0.0 0.0 0.15 0.48 0.48 10 1011.1
20260505201049 9 0 0.0 0.0 0.15 0.46 0.46 10 1011.0
20260505200045 9 0 0.0 0.0 0.15 0.43 0.43 10 1011.0
20260505195044 9 0 0.0 0.0 0.15 0.43 0.43 10 1010.9
20260505194046 9 0 0.0 0.0 0.15 0.38 0.38 10 1010.9
20260505193048 9 0 0.0 0.0 0.15 0.36 0.36 10 1010.8
20260505192041 10 0 0.0 0.0 0.15 0.36 0.36 10 1010.8
20260505191044 10 0 0.0 0.0 0.15 0.33 0.33 10 1010.7
20260505185044 10 0 0.0 0.0 0.15 0.30 0.30 10 1010.7
20260505184044 10 0 0.0 0.0 0.13 0.28 0.28 10 1010.7
20260505183042 10 0 0.0 0.0 0.10 0.23 0.23 10 1010.7
20260505182042 10 0 0.0 0.0 0.08 0.23 0.23 10 1010.7
20260505181041 10 0 0.0 0.0 0.05 0.20 0.20 10 1010.7
20260505180044 10 0 0.0 0.0 0.05 0.20 0.20 10 1010.7
20260505175040 10 0 0.0 0.0 0.05 0.18 0.18 99 1010.7
20260505174041 10 0 0.0 0.0 0.03 0.15 0.15 99 1010.7
20260505173044 10 0 0.0 0.0 0.03 0.15 0.15 99 1010.7
20260505172039 10 0 0.0 0.0 0.00 0.15 0.15 99 1010.7
20260505171041 10 0 0.0 0.0 0.00 0.15 0.15 99 1010.7
20260505165043 10 0 0.0 0.0 0.00 0.15 0.15 99 1010.8
20260505163046 10 0 0.0 0.0 0.00 0.15 0.15 98 1010.8
20260505162041 10 0 0.0 0.0 0.00 0.15 0.15 98 1010.8
20260505152039 10 0 0.0 0.0 0.00 0.23 0.15 98 1011.0
20260505151037 10 0 0.0 0.0 0.00 0.25 0.15 98 1011.1
20260505125037 10 0 0.0 0.0 0.00 0.58 0.15 10 1011.8
20260505124039 10 0 0.0 0.0 0.00 0.58 0.15 10 1011.8
20260505123037 10 0 0.0 0.0 0.00 0.58 0.15 10 1011.8
20260505121038 10 0 0.0 0.0 0.00 0.58 0.15 10 1011.8
20260505120037 10 0 0.0 0.0 0.00 0.58 0.15 10 1011.8
20260505115035 10 0 0.0 0.0 0.00 0.58 0.15 10 1011.9
20260505114040 10 0 0.0 0.0 0.00 0.58 0.15 10 1011.9
20260505113036 10 0 0.0 0.0 0.00 0.58 0.15 10 1012.0
20260505112041 10 0 0.0 0.0 0.00 0.58 0.15 10 1012.0
20260505111039 10 0 0.0 0.0 0.00 0.58 0.15 10 1012.1
20260505102034 10 0 0.0 0.0 0.03 0.58 0.15 10 1012.1
20260505101038 10 0 0.0 0.0 0.03 0.58 0.15 10 1012.1
20260505100036 10 0 0.0 0.0 0.03 0.58 0.15 10 1012.2
20260505095037 10 0 0.0 0.0 0.03 0.58 0.15 10 1012.2
20260505094037 10 0 0.0 0.0 0.03 0.58 0.15 10 1012.2
20260505093038 10 0 0.0 0.0 0.05 0.58 0.15 10 1012.2
20260505091039 11 0 0.0 0.0 0.05 0.56 0.13 10 1012.3
20260505090038 11 0 0.0 0.0 0.05 0.56 0.13 10 1012.3
20260505085033 11 0 0.0 0.0 0.05 0.56 0.13 10 1012.3
20260505084036 11 0 0.0 0.0 0.05 0.56 0.13 10 1012.3
20260505083038 11 0 0.0 0.0 0.05 0.56 0.13 10 1012.3
20260505081038 11 0 0.0 0.0 0.00 0.51 0.05 10 1012.3
20260505075036 11 0 0.0 0.0 0.00 0.51 0.05 10 1012.3
20260505074040 11 0 0.0 0.0 0.00 0.51 0.05 10 1012.2
20260505073036 11 0 0.0 0.0 0.00 0.51 0.05 10 1012.2
20260505072041 11 0 0.0 0.0 0.00 0.51 0.05 10 1012.2
20260505071037 11 0 0.0 0.0 0.00 0.51 0.05 10 1012.2
20260505070035 11 0 0.0 0.0 0.00 0.51 0.05 10 1012.2
20260505064037 11 0 0.0 0.0 0.00 0.51 0.05 10 1012.3
20260505063033 11 0 0.0 0.0 0.03 0.51 0.05 10 1012.3
20260505062035 11 0 0.0 0.0 0.03 0.51 0.05 10 1012.3
20260505061037 11 0 0.0 0.0 0.05 0.51 0.05 10 1012.4
20260505055037 11 0 0.0 0.0 0.05 0.51 0.05 10 1012.4
20260505054038 11 0 0.0 0.0 0.05 0.51 0.05 10 1012.4
20260505053036 12 0 0.0 0.0 0.05 0.51 0.05 10 1012.4
20260505052036 12 0 0.0 0.0 0.05 0.48 0.05 10 1012.3
20260505051039 12 0 0.0 0.0 0.05 0.48 0.05 10 1012.3
20260505041036 11 0 0.0 0.0 0.00 0.43 0.00 10 1012.4
20260505040037 11 0 0.0 0.0 0.00 0.43 0.00 10 1012.4
20260505035040 11 0 0.0 0.0 0.00 0.43 0.00 10 1012.4
20260505034037 11 0 0.0 0.0 0.00 0.43 0.00 10 1012.4
20260505033039 11 0 0.0 0.0 0.00 0.43 0.00 10 1012.5
20260505032039 11 0 0.0 0.0 0.00 0.43 0.00 10 1012.6
20260505031038 11 0 0.0 0.0 0.00 0.43 0.00 10 1012.7
20260505030037 11 0 0.0 0.0 0.00 0.43 0.00 10 1012.8
20260505025037 11 0 0.0 0.0 0.00 0.43 0.00 10 1012.8
20260505024039 11 0 0.0 0.0 0.00 0.43 0.00 10 1012.8
20260505022039 11 0 0.0 0.0 0.00 0.43 0.00 10 1012.8
20260505021039 11 0 0.0 0.0 0.00 0.43 0.00 10 1012.9
20260505020039 11 0 0.0 0.0 0.00 0.43 0.00 10 1012.9
20260505015038 11 0 0.0 0.0 0.00 0.43 0.00 10 1012.8
20260505014037 11 0 0.0 0.0 0.00 0.43 0.00 10 1012.8
20260505013036 11 0 0.0 0.0 0.00 0.43 0.00 10 1012.9
20260505012037 11 0 0.0 0.0 0.00 0.43 0.00 10 1013.0
20260505011038 11 0 0.0 0.0 0.00 0.43 0.00 10 1013.1
20260505010038 11 0 0.0 0.0 0.00 0.43 0.00 10 1013.2
20260505005039 11 0 0.0 0.0 0.00 0.43 0.00 10 1013.3
20260505004037 11 0 0.0 0.0 0.00 0.43 0.00 10 1013.4
20260505003037 11 0 0.0 0.0 0.00 0.43 0.00 10 1013.5
20260505002036 11 0 0.0 0.0 0.00 0.43 0.00 10 1013.5
20260505001038 11 0 0.0 0.0 0.00 0.43 0.00 10 1013.5
20260505000040 11 0 0.0 0.0 0.00 0.43 0.00 10 1013.5
20260504235044 11 0 0.0 0.0 0.00 0.43 0.00 10 1013.6
20260504234043 12 0 0.0 0.0 0.00 0.43 0.00 10 1013.7
20260504233043 12 0 0.0 0.0 0.00 0.43 0.00 10 1013.8
20260504232044 12 0 0.0 0.0 0.00 0.43 0.00 10 1013.8
20260504231045 12 0 0.0 0.0 0.00 0.43 0.00 99 1013.9
20260504225045 12 0 0.0 0.0 0.00 0.43 0.00 99 1014.1
20260504224045 12 0 0.0 0.0 0.00 0.43 0.00 99 1014.2
20260504223043 12 0 0.0 0.0 0.00 0.43 0.00 99 1014.3
20260504222044 12 0 0.0 0.0 0.00 0.43 0.00 99 1014.4
20260504221046 12 0 0.0 0.0 0.00 0.43 0.00 99 1014.4
20260504220041 12 0 0.0 0.0 0.00 0.43 0.00 98 1014.5
20260504215049 12 0 0.0 0.0 0.00 0.43 0.43 98 1014.6
20260504214049 12 0 0.0 0.0 0.00 0.43 0.43 98 1014.7
20260504213047 12 0 0.0 0.0 0.00 0.43 0.43 98 1014.8
20260504212050 12 0 0.0 0.0 0.00 0.43 0.43 98 1014.7
20260504211048 12 0 0.0 0.0 0.00 0.43 0.43 97 1014.8